Flag for United Kingdom Weather past 2 weeks in Preston, England, United Kingdom

Now
64 °F

Haze.


Feels Like: 64 °F
Forecast: 56 / 70 °F
Wind: 9 mph from East

Location: Blackpool Airport

Current Time: Sep 18, 2014 at 9:45:47 PM

Latest Report: Sep 18, 2014 at 9:20 PM


Visibility: 3 mi

Pressure: 29.89 "Hg

Humidity: 88%

Dew point: 61 °F

Location of PrestonLocation

Historic Weather in Preston — Graph

°F

Preston temperature yesterday

Maximum temperature yesterday: 70 °F (at 1:50 PM)
Minimum temperature yesterday: 54 °F (at 6:20 AM)
Average temperature yesterday: 64 °F

Past Weeks' High & Low Weather Summary

 TemperatureHumidityPressure
High72 °F (Sep 4, 2:50 PM)100% (Sep 9, 6:20 AM)30.36 "Hg (Sep 9, 6:20 AM)
Low46 °F (Sep 9, 6:20 AM)53% (Sep 10, 1:50 PM)29.83 "Hg (Sep 18, 4:20 PM)
Average62 °F77%30.11 "Hg
* Reported Sep 3 8:20 PM — Sep 18 8:20 PM, Preston, Weather by CustomWeather, © 2014

Note: Actual official high and low records may vary slightly from our data, if they occured in-between our weather recording intervals... More about our weather records

Advertising

Preston weather history for previous 24 hours

 ConditionsComfort  
Time TempWeatherWind HumidityBarometerVisibility
8:20 PM
Sep 18
64 °FHaze.7 mph88%29.86 "Hg3 mi
7:50 PM64 °FClear.7 mph88%29.86 "Hg4 mi
7:20 PM66 °FClear.7 mph83%29.86 "Hg5 mi
6:50 PM68 °FClear.8 mph78%29.86 "Hg5 mi
6:20 PM68 °FClear.10 mph78%29.86 "Hg5 mi
5:50 PM70 °FClear.13 mph73%29.86 "Hg4 mi
5:20 PM70 °FClear.14 mph73%29.86 "Hg4 mi
4:50 PM70 °FClear.14 mph73%29.83 "Hg4 mi
4:20 PM72 °FClear.15 mph69%29.83 "Hg4 mi
3:20 PM70 °FScattered clouds.13 mph73%29.86 "Hg4 mi
2:50 PM70 °FScattered clouds.13 mph73%29.86 "Hg5 mi
2:20 PM70 °FScattered clouds.12 mph73%29.86 "Hg5 mi
1:50 PM70 °FScattered clouds.13 mph73%29.86 "Hg5 mi
1:20 PM70 °FScattered clouds.10 mph73%29.86 "Hg5 mi
12:50 PM68 °FScattered clouds.12 mph78%29.86 "Hg6 mi
12:20 PM68 °FScattered clouds.12 mph78%29.86 "Hg6 mi
11:50 AM66 °FScattered clouds.12 mph78%29.86 "Hg4 mi
10:50 AM64 °FScattered clouds.13 mph83%29.89 "Hg4 mi
10:20 AM64 °FScattered clouds.12 mph83%29.89 "Hg4 mi
9:50 AM63 °FScattered clouds.13 mph88%29.89 "Hg5 mi
9:20 AM63 °FScattered clouds.13 mph83%29.89 "Hg5 mi
8:50 AM61 °FPartly sunny.10 mph88%29.89 "Hg5 mi
8:20 AM61 °FPartly sunny.8 mph94%29.89 "Hg5 mi
7:50 AM61 °FPartly sunny.7 mph88%29.89 "Hg5 mi
7:20 AM61 °FPassing clouds.8 mph88%29.86 "Hg5 mi
6:50 AM61 °FPassing clouds.9 mph88%29.86 "Hg5 mi
6:20 AM61 °FPassing clouds.9 mph94%29.86 "Hg6 mi
Weather by CustomWeather, © 2014

See weather overviewHow to use our weather pages